Location: Newark
(15.4608°S, 41.1635°W)
Time: 10:44:13
(UTC+00:00)

Vanguard 3 - Pass Details

Date: 08 August 2021
Orbit: 510 x 3260 km, 33.3° (Epoch: 22 September)

Event Time Altitude Azimuth Distance (km) Brightness Sun altitude
Rises 02:04:00 0° 322° (NW) 7,210 12.1 -78.8°
Reaches altitude 10° 02:09:25 10° 328° (NNW) 6,162 11.6 -80.1°
Enters shadow 02:11:25 14° 331° (NNW) 5,773 11.4 -80.6°
Maximum altitude 02:26:56 44° 33° (NNE) 3,392 - -84.3°
Drops below altitude 10° 02:38:58 10° 100° (E) 4,365 - -87.2°
Sets 02:42:00 0° 107° (ESE) 5,030 - -87.9°
